Location: Catenanuova
(37.5690°N, 14.6870°E)
Time: 12:21:22
(UTC+02:00)

Hubble Space Telescope - Pass Details

Date: 30 May 2024
Orbit: 511 x 514 km, 28.5° (Epoch: 13 June)

Event Time Altitude Azimuth Distance (km) Brightness Sun altitude
Rises 22:09:54 0° 253° (WSW) 2,610 4.6 -18.4°
Reaches altitude 10° 22:12:35 10° 235° (SW) 1,723 3.4 -18.8°
Enters shadow 22:14:18 17° 211° (SSW) 1,334 2.6 -19.0°
